Weather History for Oakland, CA

Change the Weather History Date:

Monday, July 22, 2013

  Actual Average Record
Temperature  
Mean Temperature 63 °F 63 °F  
Max Temperature 70 °F 70 °F 98 °F (2006)
Min Temperature 56 °F 56 °F 52 °F (2008)
Degree Days  
Heating Degree Days 2 3  
Month to date heating degree days 27 66  
Since 1 June heating degree days 87 169  
Since 1 July heating degree days 27 66  
Cooling Degree Days 0 0  
Month to date cooling degree days 27 21  
Year to date cooling degree days 103 55  
Since 1 June cooling degree days 62 39  
Growing Degree Days 12 (Base 50)    
Moisture  
Dew Point 60 °F    
Average Humidity 87    
Maximum Humidity 100    
Minimum Humidity 73    
Precipitation  
Precipitation 0.00 in 0.00 in 0.01 in (1979)
Month to date precipitation T 0.01  
Year to date precipitation 2.82 13.23  
Since 1 July precipitation T 0.01  
Sea Level Pressure  
Sea Level Pressure 29.94 in    
Wind  
Wind Speed 10 mph (NW)    
Max Wind Speed 16 mph    
Max Gust Speed 29 mph    
Visibility 10 miles    
Events      
T = Trace of Precipitation, MM = Missing Value Source: NWS Daily Summary

Daily Weather History Graph

Daily Weather History Graph

Search for Another Location

Airport:

Trip Planner

Search our weather history database for the weather conditions in past years. The results will help you decide how hot, cold, wet, or windy it might be!

Date:

Astronomy

Jul. 22, 2013 Rise Set
Actual Time 6:04 AM PDT 8:25 PM PDT
Civil Twilight 5:34 AM PDT 8:55 PM PDT
Nautical Twilight 4:57 AM PDT 9:32 PM PDT
Astronomical Twilight 4:17 AM PDT 10:12 PM PDT
Moon 8:17 PM PDT (7/22) 6:06 AM PDT (7/22)
Length of Visible Light 15h 20m
Length of Day
14h 21m
Full, 100% of the Moon is Illuminated
Jul 22
Full
Jul 29
Last Quarter
Aug 6
New
Aug 14
First Quarter
Aug 20
Full

Hourly Weather History & Observations

Time (PDT) Temp. Dew Point Humidity Pressure Visibility Wind Dir Wind Speed Gust Speed Precip Events Conditions
12:53 AM 55.9 °F 54.0 °F 93% 29.90 in 10.0 mi NW 11.5 mph - N/A   Overcast
1:53 AM 57.0 °F 54.0 °F 89% 29.91 in 10.0 mi NNW 8.1 mph - N/A   Overcast
2:53 AM 57.9 °F 55.0 °F 90% 29.89 in 10.0 mi NW 8.1 mph - N/A   Overcast
3:53 AM 57.9 °F 55.0 °F 90% 29.90 in 10.0 mi WNW 10.4 mph - N/A   Overcast
4:53 AM 57.9 °F 55.0 °F 90% 29.91 in 10.0 mi NW 9.2 mph - N/A   Overcast
5:53 AM 57.9 °F 55.0 °F 90% 29.93 in 10.0 mi NNW 6.9 mph - N/A   Overcast
6:53 AM 59.0 °F 55.0 °F 87% 29.95 in 10.0 mi NE 5.8 mph - N/A   Overcast
7:53 AM 60.1 °F 60.1 °F 100% 29.95 in 6.0 mi North 5.8 mph - N/A   Overcast
8:16 AM 60.8 °F 60.8 °F 100% 29.95 in 6.0 mi North 6.9 mph - N/A   Overcast
8:53 AM 62.1 °F 62.1 °F 100% 29.95 in 6.0 mi NW 6.9 mph - N/A   Overcast
9:53 AM 63.0 °F 62.1 °F 97% 29.95 in 10.0 mi WNW 6.9 mph - N/A   Overcast
10:23 AM 64.4 °F 62.6 °F 94% 29.95 in 10.0 mi WNW 10.4 mph - N/A   Mostly Cloudy
10:53 AM 64.9 °F 61.0 °F 87% 29.96 in 10.0 mi WNW 11.5 mph - N/A   Mostly Cloudy
11:53 AM 66.0 °F 61.0 °F 84% 29.95 in 10.0 mi WNW 11.5 mph - N/A   Mostly Cloudy
12:53 PM 69.1 °F 60.1 °F 73% 29.94 in 10.0 mi WNW 13.8 mph - N/A   Mostly Cloudy
1:53 PM 68.0 °F 62.1 °F 81% 29.94 in 10.0 mi WNW 13.8 mph - N/A   Overcast
2:53 PM 68.0 °F 62.1 °F 81% 29.94 in 10.0 mi WNW 13.8 mph - N/A   Mostly Cloudy
3:53 PM 68.0 °F 62.1 °F 81% 29.93 in 10.0 mi NW 13.8 mph - N/A   Mostly Cloudy
4:53 PM 66.0 °F 62.1 °F 87% 29.93 in 10.0 mi NW 12.7 mph - N/A   Mostly Cloudy
5:53 PM 64.0 °F 61.0 °F 90% 29.94 in 10.0 mi NNW 10.4 mph 19.6 mph N/A   Mostly Cloudy
6:53 PM 64.9 °F 61.0 °F 87% 29.96 in 10.0 mi NNW 9.2 mph - N/A   Mostly Cloudy
7:53 PM 64.9 °F 61.0 °F 87% 29.95 in 10.0 mi North 6.9 mph - N/A   Scattered Clouds
8:53 PM 63.0 °F 61.0 °F 93% 29.95 in 10.0 mi NNW 9.2 mph - N/A   Scattered Clouds
9:53 PM 63.0 °F 61.0 °F 93% 29.97 in 10.0 mi North 5.8 mph - N/A   Scattered Clouds
10:53 PM 62.1 °F 61.0 °F 96% 29.96 in 10.0 mi NW 9.2 mph - N/A   Scattered Clouds
11:53 PM 62.1 °F 60.1 °F 93% 29.96 in 10.0 mi NNW 6.9 mph - N/A   Overcast